Tracking 34717 objects as of 14-Jul-2026
HD Live streaming from Space Station
objects crossing your sky now

ATLAS 5 CENTAUR R/B

Track ATLAS 5 CENTAUR R/B now!


NORAD ID: 51851
Int'l Code: 2022-021B
Perigee: 8,199.2 km
Apogee: 35,003.3 km
Inclination: 7.3 °
Period: 776.0 minutes
Semi major axis: 27972 km
RCS: Unknown
Launch date: March 1, 2022
Source: United States (US)
Launch site: AIR FORCE EASTERN TEST RANGE (AFETR)

Note: This is a ROCKET BODY
Your satellite tracking list
Your tracking list is empty




NASA's NSSDC Master Catalog

Two Line Element Set (TLE):
1 51851U 22021B   26194.31174838 -.00000128  00000-0  00000-0 0  9996
2 51851   7.3055 170.9762 4791206 128.5198 285.0626  1.85571834 29593
Source of the keplerian elements: AFSPC